www.pogodaiklimat.ru

Погода и климат >> Архив погоды >> Норвегия >> Брённёйсунн аэропорт


ПОГОДА в Брённёйсунн аэропорту

  • Прогноз погоды в Брённёйсунн аэропорту
  • Монитор погоды в Брённёйсунн аэропорту

АРХИВ ПОГОДЫ в Брённёйсунн аэропорту

Время (UTC), дата Ветер
(напр.,м/с)
 
Видим.   Явления Облачность Т
(С)
Тd
(С)
f
(%)
Тe
(С)
Тes
(С)
Комфортность P
(гПа)
Po
(гПа)
Тmin
(С)
Tmax
(С)
R
(мм)
R24
(мм)
S
(см)
19 18.08 С 3
{4}
н/о н/о +13.7 +10.7 82 +13 +13 1000.1 999.2
20 18.08
{4}
н/о н/о +12.7 +10.8 88 999.9 999.0
21 18.08 С 2
{4}
н/о н/о +11.9 +10.6 92 +11 +11 999.7 998.7
22 18.08 С 2
{3}
н/о н/о +11.4 +10.6 95 +10 +10 999.3 998.4
23 18.08 С 2
{4}
н/о н/о +11.9 +11.3 96 +11 +11 998.8 997.9
00 19.08 СВ 2
{4}
н/о н/о +11.9 +11.0 94 +11 +11 998.4 997.5
01 19.08
{4}
н/о н/о +11.8 +10.9 94 997.9 997.0
02 19.08 СВ 2
{3}
н/о н/о +12.4 +10.0 85 +11 +11 997.5 996.6
03 19.08 СВ 2
{4}
н/о н/о +12.4 +9.8 84 +11 +11 997.3 996.4
04 19.08 СВ 3
{4}
н/о н/о +12.9 +9.5 80 +12 +12 997.0 996.1
05 19.08 В 3
{4}
н/о н/о +15.3 +10.1 71 +15 +15 996.6 995.7
06 19.08 В 4
{7}
н/о н/о +17.2 +9.6 61 +17 +17 996.3 995.4 +10.8 +17.2
07 19.08 В 1
{5}
н/о н/о +19.0 +10.8 59 +21 +21 комфорт 996.2 995.3
08 19.08 В 2
{4}
н/о н/о +19.5 +11.0 58 +21 +21 комфорт 996.0 995.1
09 19.08 З 1
{4}
н/о н/о +21.3 +10.8 51 +23 +23 комфорт 996.0 995.1
10 19.08 З 3
{4}
н/о н/о +19.8 +11.1 57 +21 +21 комфорт 996.1 995.2
11 19.08 З 3
{7}
н/о н/о +20.2 +11.7 58 +22 +22 комфорт 996.4 995.5
12 19.08 З 3
{7}
н/о н/о +18.9 +10.5 58 +20 +20 996.8 996.0
13 19.08 СЗ 1
{4}
н/о н/о +18.2 +9.6 57 +20 +20 997.3 996.4
14 19.08 В 2
{2}
н/о н/о +18.9 +12.0 64 +20 +20 997.6 996.7
15 19.08 В 1
{2}
н/о н/о +19.4 +10.7 57 +22 +22 комфорт 997.8 996.9
16 19.08 В 1
{1}
н/о н/о +19.3 +9.5 53 +21 +21 комфорт 998.1 997.2
17 19.08 С 2
{5}
н/о н/о +17.6 +9.3 58 +18 +18 998.4 997.5
18 19.08 штиль 0
{5}
н/о н/о +16.2 +11.0 71 +16 +16 998.8 997.9 +16.2 +21.8
19 19.08 штиль 0
{1}
н/о н/о +14.7 +11.3 80 +14 +14 999.4 998.5
20 19.08 ЮЗ 2
{2}
н/о н/о +12.2 +10.8 91 +11 +11 1000.1 999.2
21 19.08 ЮЗ 4
{6}
н/о н/о +12.3 +11.0 92 +10 +10 1000.9 1000.0
22 19.08 ЮЗ 5
{8}
н/о н/о +13.7 +11.8 88 +12 +12 1001.5 1000.6
23 19.08 Ю 4
{7}
н/о н/о +13.9 +11.6 86 +12 +12 1002.1 1001.1
00 20.08 ЮЗ 3
{8}
н/о н/о +13.7 +11.1 84 +13 +13 1002.3 1001.4
01 20.08 ЮЗ 5
{7}
н/о н/о +13.5 +10.9 84 +12 +12 1002.7 1001.8
02 20.08 Ю 2
{5}
н/о н/о +12.9 +10.6 86 +12 +12 1003.0 1002.1
03 20.08 В 2
{3}
н/о н/о +11.3 +9.9 91 +10 +10 1003.3 1002.4
04 20.08 В 1
{3}
н/о н/о +11.1 +9.9 92 +11 +11 1003.7 1002.8
05 20.08 В 2
{4}
н/о н/о +12.6 +10.5 87 +12 +12 1003.7 1002.8
06 20.08 З 1
{7}
н/о н/о +13.8 +11.5 86 +14 +14 1004.0 1003.1 +10.9 +16.2
07 20.08 ЮВ 1
{4}
н/о н/о +14.7 +11.3 80 +15 +15 1004.7 1003.8
08 20.08 Ю 5
{9}
н/о н/о +15.0 +10.4 74 +14 +14 1005.4 1004.5
09 20.08 ЮЗ 6
{8}
н/о н/о +15.4 +11.2 76 +14 +14 1006.2 1005.3
10 20.08 ЮЗ 4
{8}
н/о н/о +14.7 +12.0 84 +13 +13 1006.8 1005.9
11 20.08 ЮЗ 3
{5}
н/о н/о +15.6 +11.8 78 +15 +15 1007.2 1006.3
12 20.08 ЮЗ 4
{9}
н/о н/о +15.7 +11.1 74 +15 +15 1007.7 1006.8
13 20.08 ЮЗ 5
{7}
н/о н/о +15.1 +10.7 75 +14 +14 1008.2 1007.3
14 20.08 ЮЗ 4
{6}
н/о н/о +14.9 +11.9 82 +14 +14 1008.6 1007.7
15 20.08 Ю 3
{5}
н/о н/о +15.1 +10.5 74 +14 +14 1008.7 1007.8
16 20.08 ЮЗ 4
{7}
н/о н/о +16.0 +10.1 68 +15 +15 1008.9 1008.0
17 20.08 ЮЗ 6
{10}
н/о н/о +15.0 +10.4 74 +13 +13 1009.3 1008.4
18 20.08 ЮЗ 7
{11}
н/о н/о +14.2 +10.2 77 +12 +12 1009.9 1009.0 +13.7 +16.6
19 20.08 ЮЗ 6
{9}
н/о н/о +13.8 +11.2 84 +12 +12 1010.3 1009.4
20 20.08 ЮЗ 7
{11}
н/о н/о +13.1 +11.5 90 +10 +10 1010.6 1009.7
21 20.08 Ю 6
{10}
н/о н/о +12.9 +10.8 87 +10 +10 1010.8 1009.8
22 20.08 Ю 8
{11}
н/о н/о +13.3 +9.7 79 +11 +11 1011.0 1010.1
23 20.08 Ю 7
{14}
н/о н/о +13.1 +10.3 83 +10 +10 1011.5 1010.5
00 21.08 ЮЗ 7
{14}
н/о н/о +12.9 +10.4 85 +10 +10 1011.8 1010.9
01 21.08 Ю 8
{12}
н/о н/о +12.8 +10.0 83 +10 +10 1012.1 1011.2
02 21.08 Ю 7
{11}
н/о н/о +12.2 +10.1 87 +9 +9 1012.3 1011.4
03 21.08 Ю 7
{11}
н/о н/о +12.0 +10.3 89 +9 +9 1012.5 1011.6
04 21.08 Ю 8
{11}
н/о н/о +12.0 +10.7 92 +9 +9 1012.7 1011.8
05 21.08 Ю 7
{11}
н/о н/о +12.4 +11.3 93 +9 +9 1013.1 1012.2
06 21.08 ЮЗ 8
{12}
н/о н/о +12.9 +12.0 94 +10 +10 1013.4 1012.5 +11.7 +14.3
07 21.08 ЮЗ 9
{13}
н/о н/о +12.9 +11.6 92 +10 +10 1014.1 1013.2
08 21.08 ЮЗ 8
{13}
н/о н/о +12.6 +11.7 94 +9 +9 1014.5 1013.5
09 21.08 ЮЗ 6
{13}
н/о н/о +12.9 +11.6 92 +10 +10 1015.1 1014.2
10 21.08 ЮЗ 7
{11}
н/о н/о +13.4 +12.0 91 +11 +11 1015.6 1014.7
11 21.08 ЮЗ 7
{11}
н/о н/о +13.2 +11.6 90 +11 +11 1016.1 1015.1
12 21.08 ЮЗ 6
{13}
н/о н/о +12.5 +11.4 93 +10 +10 1016.5 1015.6
13 21.08 ЮЗ 6
{10}
н/о н/о +13.1 +11.8 92 +11 +11 1017.1 1016.2
14 21.08 ЮЗ 8
{13}
н/о н/о +12.5 +11.6 94 +9 +9 1017.4 1016.5
15 21.08 ЮЗ 7
{11}
н/о н/о +13.0 +12.1 94 +10 +10 1017.5 1016.6
16 21.08 ЮЗ 5
{10}
н/о н/о +12.2 +11.4 95 +10 +10 1018.0 1017.1
17 21.08 ЮЗ 8
{11}
н/о н/о +12.1 +11.2 94 +9 +9 1018.5 1017.5
18 21.08 ЮЗ 7
{14}
н/о н/о +11.7 +11.1 96 +8 +8 1018.7 1017.8 +11.4 +13.9
19 21.08 ЮЗ 6
{11}
н/о н/о +11.7 +10.5 92 +9 +9 1019.1 1018.1
20 21.08 ЮЗ 5
{9}
н/о н/о +11.1 +10.2 94 +8 +8 1019.4 1018.4
21 21.08 ЮЗ 5
{10}
н/о н/о +11.3 +8.7 84 +9 +9 1019.8 1018.8
22 21.08 ЮЗ 4
{7}
н/о н/о +10.8 +8.2 84 +8 +8 1020.1 1019.1
23 21.08 ЮЗ 4
{6}
н/о н/о +11.3 +9.7 90 +9 +9 1020.0 1019.0
00 22.08 ЮЗ 6
{11}
н/о н/о +10.9 +9.2 89 +8 +8 1020.0 1019.1
01 22.08 Ю 6
{8}
н/о н/о +10.7 +8.6 87 +7 +7 1020.1 1019.1
02 22.08 Ю 6
{8}
н/о н/о +10.7 +8.5 86 +7 +7 1020.0 1019.1
03 22.08 Ю 5
{8}
н/о н/о +10.7 +8.3 85 +8 +8 1019.9 1019.0
04 22.08 Ю 6
{8}
н/о н/о +11.1 +8.0 81 +8 +8 1019.8 1018.9
05 22.08 Ю 4
{7}
н/о н/о +11.3 +8.0 80 +9 +9 1019.8 1018.9
06 22.08 Ю 4
{8}
н/о н/о +11.6 +8.3 80 +9 +9 1019.6 1018.7 +10.4 +11.8
07 22.08 Ю 2
{5}
н/о н/о +12.6 +8.3 75 +12 +12 1019.4 1018.5
08 22.08 Ю 3
{5}
н/о н/о +14.9 +9.3 69 +14 +14 1019.2 1018.2
09 22.08 В 2
{4}
н/о н/о +13.8 +7.6 66 +13 +13 1018.7 1017.8
10 22.08 В 4
{5}
н/о н/о +15.2 +8.7 65 +14 +14 1018.0 1017.1
11 22.08 В 4
{5}
н/о н/о +16.5 +8.2 58 +16 +16 1017.1 1016.2
12 22.08 В 4
{5}
н/о н/о +16.8 +8.3 57 +16 +16 1016.6 1015.7
13 22.08 В 4
{6}
н/о н/о +17.4 +8.0 54 +17 +17 1015.7 1014.8
14 22.08 В 4
{6}
н/о н/о +17.4 +7.2 51 +17 +17 1015.0 1014.1
15 22.08 СВ 3
{6}
н/о н/о +17.5 +7.3 51 +18 +18 1014.4 1013.5
16 22.08 С 5
{6}
н/о н/о +15.7 +7.2 57 +15 +15 1013.4 1012.5
17 22.08 СВ 3
{6}
н/о н/о +15.9 +7.7 58 +16 +16 1012.6 1011.7
18 22.08 В 6
{9}
н/о н/о +16.0 +9.7 66 +15 +15 1012.1 1011.2 +11.6 +18.4
19 22.08 ЮВ 6
{9}
н/о н/о +15.9 +10.0 68 +15 +15 1011.7 1010.8
20 22.08 Ю 5
{10}
н/о н/о +16.9 +9.1 60 +16 +16 1011.7 1010.8
21 22.08 Ю 4
{10}
н/о н/о +15.2 +10.2 72 +14 +14 1012.0 1011.1
22 22.08 СЗ 2
{8}
н/о н/о +13.8 +10.8 82 +13 +13 1011.7 1010.8
23 22.08 СВ 1
{4}
н/о н/о +13.5 +10.5 82 +14 +14 1011.6 1010.6
00 23.08 СВ 1
{10}
н/о н/о +12.7 +10.8 88 +13 +13 1011.5 1010.6
01 23.08 В 2
{3}
н/о н/о +12.6 +11.0 90 +12 +12 1011.1 1010.2
02 23.08 Ю 4
{6}
н/о н/о +12.7 +11.3 91 +11 +11 1011.0 1010.1
03 23.08 Ю 6
{8}
н/о н/о +12.6 +10.8 89 +10 +10 1011.1 1010.2
04 23.08 Ю 5
{9}
н/о н/о +12.3 +11.2 93 +10 +10 1011.1 1010.2
05 23.08 ЮЗ 2
{5}
н/о н/о +12.5 +11.1 91 +12 +12 1011.2 1010.3
06 23.08 ЮЗ 4
{9}
н/о н/о +12.5 +11.2 92 +10 +10 1011.4 1010.5 +12.1 +17.0
07 23.08 ЮЗ 5
{7}
н/о н/о +13.1 +12.0 93 +11 +11 1011.7 1010.8
08 23.08 ЮЗ 3
{7}
н/о н/о +13.2 +11.8 91 +12 +12 1011.9 1011.0
09 23.08 ЮЗ 2
{6}
н/о н/о +13.6 +12.3 92 +13 +13 1012.3 1011.4
10 23.08 ЮЗ 4
{5}
н/о н/о +14.3 +11.5 83 +13 +13 1012.9 1012.0
11 23.08 З 4
{6}
н/о н/о +14.1 +11.1 82 +13 +13 1013.5 1012.5
12 23.08 ЮЗ 3
{7}
н/о н/о +15.8 +10.8 72 +15 +15 1014.0 1013.1
13 23.08 З 4
{7}
н/о н/о +16.1 +11.7 75 +15 +15 1014.6 1013.7
14 23.08 З 4
{6}
н/о н/о +15.0 +10.8 76 +14 +14 1015.2 1014.3
15 23.08 З 4
{6}
н/о н/о +15.9 +11.5 75 +15 +15 1015.7 1014.8
16 23.08 З 3
{6}
н/о н/о +14.6 +10.4 76 +14 +14 1016.1 1015.2
17 23.08 З 3
{5}
н/о н/о +14.3 +10.5 78 +13 +13 1016.7 1015.8
18 23.08 ЮЗ 2
{7}
н/о н/о +13.4 +11.3 87 +13 +13 1017.4 1016.5 +12.5 +16.1
19 23.08 ЮЗ 2
{4}
н/о н/о +12.5 +10.6 88 +12 +12 1018.0 1017.1
20 23.08 ЮЗ 2
{3}
н/о н/о +12.5 +11.1 91 +12 +12 1018.7 1017.8
21 23.08 ЮЗ 3
{5}
н/о н/о +12.5 +11.1 91 +11 +11 1019.2 1018.3
22 23.08 ЮЗ 3 н/о н/о +12.9 +11.5 91 +11 +11 1019.8 1018.8
23 23.08 ЮЗ 4
{5}
н/о н/о +12.2 +10.9 92 +10 +10 1020.2 1019.3
00 24.08 ЮЗ 3
{5}
н/о н/о +12.5 +11.2 92 +11 +11 1020.8 1019.8
01 24.08 Ю 4
{6}
н/о н/о +12.7 +11.4 92 +11 +11 1021.2 1020.2
02 24.08 ЮЗ 5
{7}
н/о н/о +12.5 +11.2 92 +10 +10 1021.8 1020.9
03 24.08 Ю 5
{7}
н/о н/о +12.7 +10.9 89 +10 +10 1022.0 1021.1
04 24.08 ЮЗ 4
{6}
н/о н/о +12.5 +10.6 88 +11 +11 1022.4 1021.4
05 24.08 Ю 3
{7}
н/о н/о +12.8 +10.5 86 +11 +11 1022.6 1021.7
06 24.08 Ю 3
{7}
н/о н/о +13.2 +10.0 81 +12 +12 1023.1 1022.1 +12.1 +13.5
07 24.08 Ю 2
{4}
н/о н/о +14.4 +9.8 74 +14 +14 1023.4 1022.5
08 24.08 Ю 2
{4}
н/о н/о +16.7 +10.6 67 +17 +17 1023.6 1022.7
09 24.08 В 2
{3}
н/о н/о +16.8 +9.3 61 +17 +17 1023.7 1022.8
10 24.08 В 1
{2}
н/о н/о +18.5 +10.9 61 +20 +20 1023.5 1022.6
11 24.08 З 3
{4}
н/о н/о +16.9 +9.1 60 +17 +17 1023.7 1022.7
12 24.08 ЮЗ 1
{4}
н/о н/о +18.3 +8.3 52 +20 +20 1023.3 1022.4
13 24.08 В 1
{3}
н/о н/о +18.9 +9.9 56 +21 +21 комфорт 1023.3 1022.3
14 24.08 З 1
{3}
н/о н/о +17.0 +9.2 60 +18 +18 1022.8 1021.9
15 24.08 ЮЗ 1
{2}
н/о н/о +17.3 +10.2 63 +18 +18 1022.4 1021.5
16 24.08 СВ 1
{2}
н/о н/о +17.1 +10.3 64 +18 +18 1021.8 1020.9
17 24.08 С 1
{2}
н/о н/о +16.9 +11.0 68 +18 +18 1021.2 1020.3
18 24.08 ЮВ 1
{5}
н/о н/о +16.1 +10.2 68 +17 +17 1020.8 1019.9 +13.2 +20.0
19 24.08 В 1
{3}
н/о н/о +15.4 +10.6 73 +16 +16 1020.5 1019.5
20 24.08 Ю 4
{6}
н/о н/о +15.4 +11.6 78 +14 +14 1020.5 1019.6
21 24.08 Ю 3
{8}
н/о н/о +15.3 +12.6 84 +15 +15 1019.7 1018.8
22 24.08 В 3
{5}
н/о н/о +15.5 +12.5 82 +15 +15 1019.3 1018.4
23 24.08 ЮВ 2
{5}
н/о н/о +15.4 +12.7 84 +15 +15 1019.1 1018.2
00 25.08 В 3
{8}
н/о н/о +15.7 +12.6 82 +15 +15 1018.5 1017.6
01 25.08 ЮЗ 5
{8}
н/о н/о +15.7 +13.2 85 +14 +14 1018.5 1017.6
02 25.08 Ю 3
{6}
н/о н/о +15.4 +12.9 85 +15 +15 1018.1 1017.1
03 25.08 Ю 3
{6}
н/о н/о +15.2 +13.1 87 +14 +14 1017.8 1016.9
04 25.08 Ю 4
{8}
н/о н/о +14.6 +13.3 92 +13 +13 1017.6 1016.7
05 25.08 ЮЗ 4
{7}
н/о н/о +14.3 +13.5 95 +13 +13 1018.0 1017.1
06 25.08 ЮЗ 4
{9}
н/о н/о +14.4 +13.6 95 +13 +13 1018.1 1017.1 +14.3 +16.5
07 25.08 ЮЗ 4
{7}
н/о н/о +13.8 +12.5 92 +12 +12 1017.9 1017.0
08 25.08 Ю 4
{7}
н/о н/о +13.2 +12.3 94 +11 +11 1017.1 1016.2
09 25.08 Ю 5
{9}
н/о н/о +14.3 +12.9 91 +13 +13 1016.1 1015.2
10 25.08 Ю 6
{10}
н/о н/о +14.4 +13.1 92 +12 +12 1015.6 1014.7
11 25.08 ЮЗ 9
{14}
н/о н/о +14.6 +13.3 92 +12 +12 1015.9 1015.0
12 25.08 ЮЗ 8
{14}
н/о н/о +14.6 +13.3 92 +12 +12 1016.1 1015.2
13 25.08 ЮЗ 7
{13}
н/о н/о +14.2 +12.4 89 +12 +12 1016.7 1015.8
14 25.08 ЮЗ 8
{12}
н/о н/о +13.6 +11.3 86 +11 +11 1017.6 1016.7
15 25.08 ЮЗ 9
{14}
н/о н/о +13.5 +10.9 84 +11 +11 1017.9 1016.9
16 25.08 ЮЗ 7
{14}
н/о н/о +13.0 +10.9 87 +10 +10 1018.2 1017.2
17 25.08 ЮЗ 8
{14}
н/о н/о +12.6 +10.8 89 +9 +9 1018.6 1017.7

 

Местоположение метеостанции Брённёйсунн аэропорт (Норвегия): широта 65.46 долгота 12.22 высота над уровнем моря 9 м.

В архиве по умолчанию представлена погода в Брённёйсунн аэропорту за последнюю неделю. Архивные данные за месяц целиком и за предыдущие месяцы, начиная с января 2011 года, Вы можете получить, выбрав интересующий диапазон дат из раскрывающегося списка и нажав кнопку "Ввод!".


*Определитесь, кто Вы:
робот инопланетянин человек

Внимание! Время в таблицах - всемирное. Для получения местного времени необходимо прибавить поправку, которая равна 1 ч.

Смотрите также архив погоды в соседних городах и на ближайших метеорологических станциях:

Погода на Сомна-Квалёйа (Норвегия) (29 км)
Погода в Вега-Валсё (Норвегия) (32 км)
Погода в Хьётте (Норвегия) (42 км)
Погода в Лаксфорсе (Норвегия) (52 км)
Погода в Саннесшёэн аэропорту (Норвегия) (57 км)
Погода в Мосьен аэропорту (Норвегия) (58 км)
Погода в Маяватн (Норвегия) (62 км)
Погода на Маяке Sklinna (Норвегия) (64 км)
Погода в Намсскугане (Норвегия) (85 км)
Погода в Рорвик аэропорту (Норвегия) (86 км)

Пояснения к столбцам:

Ветер - указаны скорость ветра в м/с - средняя за 10 мин, порывы в срок и между сроками (в фигурных скобках) и направление, откуда дует ветер: С - северный, СВ - северо-восточный, В - восточный, ЮВ - юго-восточный, Ю - южный, ЮЗ - юго-западный, З - западный, СЗ - северо-западный.
Видимость - горизонтальная дальность видимости в метрах или километрах. При видимости от 1 до 10 км при отсутствии осадков обычно наблюдается дымка, при ухудшении видимости до 1 км и менее - туман. В сухую погоду видимость может ухудшаться дымом, пылью или мглою.
Явления - указаны атмосферные явления, наблюдавшиеся в срок или в последний час перед сроком; фигурными скобками обозначены явления, наблюдавшиеся между сроками (за 1-3 часа до срока); квадратными скобками обозначены град или гололедные отложения с указанием их диаметра в мм.
Облачность - указаны через наклонную черту общая и нижняя облачность в баллах и высота нижней границы облаков в метрах; квадратными скобками обозначены формы облаков: Ci - перистые, Cs - перисто-слоистые, Cc - перисто-кучевые, Ac - высококучевые, As - высокослоистые, Sc - слоисто-кучевые, Ns - слоисто-дождевые, Cu - кучевые, Cb - кучево-дождевые. Подробнее классификацию облаков см. в Атласе облаков (PDF).
T - Температура воздуха - температура, измеренная на высоте 2 м над землей.
Td - Температура точки росы - температура, при понижении до которой содержащийся в воздухе водяной пар достигнет насыщения.
f - Относительная влажность воздуха - влажноcть воздуха, измеренная на высоте 2 м над землей.
Te - Эффективная температура - температура, которую ощущает одетый по сезону человек в тени. Характеристика душности погоды. При расчете учитывается влияние влажности воздуха и скорости ветра на теплоощущения человека.
Tes - Эффективная температура на солнце - температура, которую ощущает человек, с поправкой на солнечный нагрев. Характеристика знойности погоды. Зависит от высоты солнца над горизонтом, облачности и скорости ветра. Ночью, в пасмурную погоду, а также при ветре 12 м/с и более поправка равна нулю.
P - Атмосферное давление - приведенное к уровню моря атмосферное давление.
Po - Атмосферное давление - измеренное на уровне метеостанции атмосферное давление.
Tmin - Минимальная температура - минимум температуры воздуха на высоте 2 м над землей.
Tmax - Максимальная температура - максимум температуры воздуха на высоте 2 м над землей.
R - Количество осадков - Количество выпавших осадков за период времени, мм. При наведении курсора мыши на число - период времени, за который выпало указанное количество осадков.
R24 - Количество осадков - Количество выпавших осадков за 24 часа, мм.
S - Снежный покров - Высота снежного покрова, см. При наведении курсора мыши на число - состояние снежного покрова и степень покрытия местности в баллах.